Airfield :
LOGIN :

Register | Disclaimer

   EN    FR    IT 

 










Legend :    VFR   Marginal VFR   IFR   Intensive IFR   Very Intensive IFR
Visi :
Ceiling :
>= 8 km
>= 3000ft
5 to 8 km
1000 to 3000 ft
1500m to 5 km
500 to 1000 ft
800 to 1500m
200 to 500 ft
< 800m
< 200 ft
Symbols :   Thunderstorms  Fog  Heavy snow  Heavy precipitations  Wind > 20 kt
SIGMETs :     Misc.  Thunderstorms  Icing  Turbulence  Mountain Waves  Volcanic Ashes







- Airport Elevation : 30 ft
- IATA code : CFN


EIDL - Donegal

CURRENT METAR :
  • 161830Z 27021KT 9999 FEW017 OVC035 14/11 Q1011

EXPIRED METARs :
  • 161800Z 27021KT 9999 FEW017 OVC035 14/11 Q1011
  • 161730Z 27019KT 9999 FEW021 SCT048 15/10 Q1010
  • 161700Z 27020KT 9999 SCT021 15/10 Q1010
  • 161630Z 27018KT 9999 BKN020 15/11 Q1010

TAF TAF EIDL
Valid from the 16 at 18:00 until the 16 at 21:00 UTC


161700Z 1618/1621 26016KT 9999 FEW015 BKN030
TEMPO 1618/1621 26018G30KT
TEMPO 1618/1620 -SHRA SCT015 FEW018CB
No reported NOTAMs for that airfield.



MET'MAP, your aeronautical weather chart ! - Copyright ORBIFLY December 2007 - Disclaimer

ORBIFLY MET'MAP TEAM :

Programming & Development : Alexandra Zaïnal
Concept & Development : Baudouin d'Aumeries
Co-Development & Prog : Marc-Olivier Méhu
Technical & hardware support : Manuel Goepfert

Contact : metmap@orbifly.com




SOURCES & CREDITS :

   NOAA